LB9CG Weather Reports


time (UTC)temp
C
wind
direction
speed
KPH
gust
KPH
rain 1hr
cm
rain 24hr
cm
rain mn
cm
humidity
%
barometer
mb
20260505190016 2 293 3.2 9.7 0.00 0.00 0.00 89 1004.4
20260505185015 2 270 6.4 16.1 0.00 0.00 0.00 89 1004.4
20260505184016 2 270 1.6 8.0 0.00 0.00 0.00 89 1004.4
20260505183036 2 270 6.4 19.3 0.00 0.00 0.00 87 1004.7
20260505182016 2 270 8.0 22.5 0.00 0.00 0.00 86 1004.5
20260505181056 2 270 1.6 8.0 0.00 0.00 0.00 88 1004.3
20260505180015 2 270 1.6 4.8 0.00 0.00 0.00 89 1004.2
20260505175016 2 0.0 3.2 0.00 0.00 0.00 88 1004.1
20260505174016 2 158 3.2 11.3 0.00 0.00 0.00 86 1004.3
20260505173015 2 248 3.2 11.3 0.00 0.00 0.00 86 1004.7
20260505172016 2 225 3.2 12.9 0.00 0.00 0.00 83 1004.6
20260505171016 2 248 4.8 12.9 0.00 0.00 0.00 81 1004.7
20260505170015 2 248 8.0 22.5 0.00 0.00 0.00 82 1004.5
20260505165016 3 270 6.4 17.7 0.00 0.00 0.00 80 1004.6
20260505164015 4 293 6.4 25.7 0.00 0.00 0.00 76 1004.4
20260505163015 4 158 1.6 6.4 0.00 0.00 0.00 74 1004.2
20260505162015 5 270 4.8 17.7 0.00 0.00 0.00 73 1004.3
20260505161016 5 293 4.8 16.1 0.00 0.00 0.00 71 1004.2
20260505153015 5 248 4.8 12.9 0.00 0.00 0.00 75 1004.4
20260505152015 6 225 4.8 16.1 0.00 0.00 0.00 72 1004.4
20260505151015 6 225 6.4 16.1 0.00 0.00 0.00 72 1004.3
20260505125017 2 158 4.8 11.3 0.00 0.00 0.00 83 1004.1
20260505124017 3 225 6.4 17.7 0.00 0.00 0.00 78 1004.2
20260505123037 5 293 6.4 17.7 0.00 0.00 0.00 75 1003.9
20260505122017 5 248 3.2 11.3 0.00 0.00 0.00 74 1003.7
20260505121017 5 293 8.0 19.3 0.00 0.00 0.00 72 1003.6
20260505120017 5 293 6.4 17.7 0.00 0.00 0.00 73 1003.4
20260505115017 5 293 6.4 14.5 0.00 0.00 0.00 74 1003.5
20260505114017 5 293 4.8 11.3 0.00 0.00 0.00 78 1003.5
20260505112017 2 225 3.2 12.9 0.00 0.00 0.00 85 1003.4
20260505111017 3 293 6.4 16.1 0.00 0.00 0.00 82 1003.4
20260505102016 4 293 3.2 11.3 0.00 0.00 0.00 78 1003.0
20260505101016 5 293 3.2 9.7 0.00 0.00 0.00 77 1003.0
20260505100037 5 293 4.8 14.5 0.00 0.00 0.00 78 1002.8
20260505095017 4 0 4.8 9.7 0.00 0.00 0.00 83 1002.7
20260505094016 4 293 3.2 17.7 0.00 0.00 0.00 79 1002.6
20260505093036 5 225 3.2 11.3 0.00 0.00 0.00 81 1002.5
20260505092017 5 293 4.8 12.9 0.00 0.00 0.00 81 1002.6
20260505091016 5 270 3.2 9.7 0.00 0.00 0.00 81 1002.7
20260505090016 3 0.0 3.2 0.00 0.00 0.00 86 1002.7
20260505085016 3 225 6.4 17.7 0.00 0.00 0.00 85 1002.8
20260505084016 3 248 4.8 16.1 0.00 0.00 0.00 87 1002.8
20260505083017 3 293 3.2 12.9 0.00 0.00 0.00 87 1002.6
20260505082016 3 225 1.6 3.2 0.00 0.00 0.00 88 1002.4
20260505081016 3 248 1.6 6.4 0.00 0.00 0.00 86 1002.4
20260505080016 4 225 1.6 6.4 0.00 0.00 0.00 87 1002.2
20260505075016 3 180 3.2 9.7 0.00 0.00 0.00 86 1002.3
20260505074016 3 0.0 4.8 0.00 0.00 0.00 89 1002.2
20260505073036 2 225 3.2 6.4 0.00 0.00 0.00 89 1002.1
20260505072016 3 135 3.2 9.7 0.00 0.00 0.00 90 1002.1
20260505071016 1 158 1.6 4.8 0.00 0.00 0.00 93 1002.1
20260505070016 1 0.0 3.2 0.00 0.00 0.00 92 1002.1
20260505065016 1 293 3.2 9.7 0.00 0.00 0.00 91 1002.2
20260505064016 1 293 4.8 17.7 0.00 0.00 0.00 89 1002.1
20260505063016 3 225 3.2 11.3 0.00 0.00 0.00 88 1001.9
20260505062016 2 270 3.2 14.5 0.00 0.00 0.00 88 1001.8
20260505061036 3 248 1.6 6.4 0.00 0.00 0.00 90 1001.7
20260505060016 3 135 1.6 6.4 0.00 0.00 0.00 92 1001.6
20260505055016 2 225 1.6 6.4 0.00 0.00 0.00 94 1001.6
20260505054016 1 158 1.6 6.4 0.00 0.00 0.00 95 1001.5
20260505053016 1 248 3.2 8.0 0.00 0.00 0.00 96 1001.7
20260505052016 0 225 1.6 4.8 0.00 0.00 0.00 96 1001.7
20260505051016 0 0.0 0.0 0.00 0.00 0.00 96 1001.6
20260505041016 0 45 1.6 6.4 0.00 0.00 0.00 96 1001.6
20260505040016 0 135 1.6 6.4 0.00 0.00 0.00 96 1001.5
20260505035016 0 135 1.6 8.0 0.00 0.00 0.00 96 1001.3
20260505034016 0 0.0 1.6 0.00 0.00 0.00 96 1001.3
20260505033016 0 0.0 1.6 0.00 0.00 0.00 96 1001.2
20260505032016 0 0.0 1.6 0.00 0.00 0.00 96 1001.2
20260505031016 0 0.0 1.6 0.00 0.00 0.00 96 1001.3
20260505030016 0 0.0 1.6 0.00 0.00 0.00 95 1001.3
20260505025015 0 293 1.6 4.8 0.00 0.00 0.00 95 1001.5
20260505024036 0 293 3.2 11.3 0.00 0.00 0.00 95 1001.5
20260505023036 0 293 1.6 6.4 0.00 0.00 0.00 95 1001.4
20260505022015 0 0.0 4.8 0.00 0.00 0.00 95 1001.0
20260505021016 0 248 3.2 9.7 0.00 0.00 0.00 95 1001.0
20260505020016 0 248 1.6 3.2 0.00 0.00 0.00 94 1000.8
20260505015015 0 0.0 1.6 0.00 0.00 0.00 94 1000.9
20260505014036 0 0.0 1.6 0.00 0.00 0.00 94 1000.7
20260505013015 0 135 1.6 3.2 0.00 0.00 0.00 93 1000.7
20260505012016 0 0.0 1.6 0.00 0.00 0.00 93 1000.6
20260505011016 1 0.0 1.6 0.00 0.00 0.00 93 1000.5
20260505010035 1 0.0 1.6 0.00 0.00 0.00 92 1000.5
20260505005016 1 338 1.6 6.4 0.00 0.00 0.00 92 1000.7
20260505004015 1 23 1.6 6.4 0.00 0.00 0.00 93 1000.6
20260505003016 1 0 3.2 9.7 0.00 0.00 0.00 94 1000.6
20260505002036 0 293 1.6 6.4 0.00 0.00 0.00 95 1000.5
20260505001056 0 0.0 3.2 0.00 0.00 0.00 95 1000.4
20260505000015 0 270 1.6 1.6 0.00 0.00 0.00 95 1000.4
20260504235015 0 0.0 1.6 0.00 0.00 0.00 94 1000.3
20260504234035 0 293 1.6 1.6 0.00 0.00 0.00 94 1000.2
20260504233015 0 0.0 0.0 0.00 0.00 0.00 94 1000.1
20260504232015 0 0.0 0.0 0.00 0.00 0.00 93 1000.2
20260504231015 0 0.0 0.0 0.00 0.00 0.00 93 1000.3
20260504230015 0 0.0 0.0 0.00 0.00 0.00 92 1000.2
20260504225015 0 0.0 0.0 0.00 0.00 0.00 91 1000.3
20260504224055 0 0.0 0.0 0.00 0.00 0.00 91 1000.3
20260504223017 0 0.0 1.6 0.00 0.00 0.00 91 1000.3
20260504222037 1 0.0 1.6 0.00 0.00 0.00 90 1000.3
20260504221017 1 0.0 1.6 0.00 0.00 0.00 90 1000.3
20260504220017 1 0.0 1.6 0.00 0.00 0.00 90 1000.2
20260504215016 1 0.0 1.6 0.00 0.00 0.00 90 1000.2
20260504214015 1 293 1.6 6.4 0.00 0.00 0.00 92 1000.2
20260504213016 1 0.0 1.6 0.00 0.00 0.00 90 1000.0
20260504212036 1 0.0 1.6 0.00 0.00 0.00 89 1000.1
20260504211015 1 0.0 1.6 0.00 0.00 0.00 90 1000.0
20260504210016 1 0.0 3.2 0.00 0.00 0.00 90 999.9
20260504205016 1 338 1.6 4.8 0.00 0.00 0.00 91 999.8
20260504204016 1 0 1.6 3.2 0.00 0.00 0.00 93 999.6
20260504203015 1 0.0 1.6 0.00 0.00 0.00 93 999.6
20260504202015 1 0.0 3.2 0.00 0.00 0.00 94 999.5
20260504201015 2 0.0 0.0 0.00 0.00 0.00 95 999.5
20260504200015 2 0.0 0.0 0.00 0.00 0.00 94 999.5
20260504195015 1 0.0 0.0 0.00 0.00 0.00 95 999.4
20260504194015 1 0.0 0.0 0.00 0.00 0.00 94 999.3
20260504193015 2 0.0 1.6 0.00 0.00 0.00 94 999.2
20260504192015 2 0.0 1.6 0.00 0.00 0.00 93 999.1
20260504191015 2 0.0 1.6 0.00 0.00 0.00 93 999.0